This is the latest recevied weather packets stored in our database for station/object K6CED. If no packets are shown the sender has not sent any weather packets the latest 10 day(s).
| Time | Temp. | Humidity | Pressure | Rain* | Wind** | Luminosity | Snow |
|---|---|---|---|---|---|---|---|
| 1778119205 | 19.44° C | 63% | 1018.2 hPa | 0 mm | - | 28 W/m² | - |
| 1778118904 | 19.44° C | 63% | 1018.1 hPa | 0 mm | - | 31 W/m² | - |
| 1778118601 | 20° C | 63% | 1018.1 hPa | 0 mm | - | 34 W/m² | - |
| 1778118297 | 20° C | 62% | 1017.9 hPa | 0 mm | - | 38 W/m² | - |
| 1778117993 | 20° C | 62% | 1018 hPa | 0 mm | - | 46 W/m² | - |
| 1778117690 | 20.56° C | 61% | 1017.9 hPa | 0 mm | - | 57 W/m² | - |
| 1778117387 | 21.11° C | 59% | 1018 hPa | 0 mm | - | 70 W/m² | - |
| 1778117084 | 21.11° C | 60% | 1017.7 hPa | 0 mm | - | 77 W/m² | - |
| 1778116780 | 21.11° C | 60% | 1017.9 hPa | 0 mm | - | 89 W/m² | - |
| 1778116477 | 21.11° C | 58% | 1017.9 hPa | 0 mm | - | 101 W/m² | - |
| 1778116172 | 21.67° C | 58% | 1017.9 hPa | 0 mm | - | 113 W/m² | - |
| 1778115868 | 21.67° C | 58% | 1017.8 hPa | 0 mm | - | 128 W/m² | - |
| 1778115565 | 21.67° C | 58% | 1017.6 hPa | 0 mm | - | 145 W/m² | - |
| 1778115262 | 21.67° C | 57% | 1017.7 hPa | 0 mm | - | 159 W/m² | - |
| 1778114958 | 22.22° C | 57% | 1017.5 hPa | 0 mm | - | 177 W/m² | - |
| 1778114655 | 22.22° C | 56% | 1017.4 hPa | 0 mm | - | 193 W/m² | - |
| 1778114353 | 23.33° C | 54% | 1017.6 hPa | 0 mm | - | 210 W/m² | - |
| 1778114048 | 22.78° C | 55% | 1017.5 hPa | 0 mm | - | 222 W/m² | - |
| 1778113743 | 22.78° C | 55% | 1017.5 hPa | 0 mm | - | 239 W/m² | - |
| 1778113439 | 22.78° C | 55% | 1017.4 hPa | 0 mm | - | 256 W/m² | - |
| 1778113136 | 22.78° C | 55% | 1017.5 hPa | 0 mm | - | 272 W/m² | - |
| 1778112833 | 23.33° C | 54% | 1017.4 hPa | 0 mm | - | 298 W/m² | - |
| 1778112530 | 23.33° C | 54% | 1017.3 hPa | 0 mm | - | 317 W/m² | - |
| 1778112225 | 23.33° C | 54% | 1017.2 hPa | 0 mm | - | 335 W/m² | - |
| 1778111922 | 23.33° C | 54% | 1017.4 hPa | 0 mm | - | 353 W/m² | - |
* Rain latest hour (hover to see other rain measurements)
** Current wind speed in m/s (hover to see current wind gust speed)